Station 45202 - Port Clinton Buoy Image indicating link to RSS feed of recent meteorological observations for station 45202


Conditions at 45202 as of
(5:40 am EDT)
0940 GMT on 07/21/2024:
     

Click on the graph icon in the table below to see a time series plot of the last five days of that observation.

5-day plot - Wind Speed Wind Speed (WSPD): 5.8 kts
5-day plot - Wind Gust Wind Gust (GST): 7.8 kts
5-day plot - Wave Height Wave Height (WVHT): 0.3 ft
5-day plot - Mean Wave Direction Mean Wave Direction (MWD):NNW ( 330 deg true )
5-day plot - Atmospheric Pressure Atmospheric Pressure (PRES):30.09 in
5-day plot - Air Temperature Air Temperature (ATMP): 69.6 °F
5-day plot - Water Temperature Water Temperature (WTMP): 78.3 °F
5-day plot - Dew Point Dew Point (DEWP): 62.1 °F
5-day plot - Wind Speed at 10 Meters Wind Speed at 10 meters (WSPD10M): 5.8 kts
5-day plot - Wind Speed at 20 Meters Wind Speed at 20 meters (WSPD20M): 7.8 kts
5-day plot -  Wind Speed, Wind Gust and Atmospheric Pressure Combined plot of Wind Speed, Gust, and Air Pressure
Previous observations
TIME
(EDT)
5-day plot - Wind Direction
WDIR
 
5-day plot - Wind Speed
WSPD
kts
5-day plot - Wind Gust
GST
kts
5-day plot - Wave Height
WVHT
ft
5-day plot - Dominant Wave Period
DPD
sec
5-day plot - Average Wave Period
APD
sec
5-day plot - Mean Wave Direction
MWD
 
5-day plot - Atmospheric Pressure
PRES
in
5-day plot - Pressure Tendency
PTDY
in
5-day plot - Air Temperature
ATMP
°F
5-day plot - Water Temperature
WTMP
°F
5-day plot - Dew Point
DEWP
°F
5-day plot - Salinity
SAL
psu
5-day plot - Visibility
VIS
nmi
5-day plot - Tide (above MLLW)
TIDE
ft
2024-07-21 05:30 am- 5.8 7.8 0.3-- NW30.09- 71.4 78.3 63.0---
2024-07-21 05:20 am- 7.8 9.7 0.3--NNW30.09- 72.0 78.3 61.5---
2024-07-21 05:10 am- 7.8 11.7 0.3--NNW30.08- 72.1 78.3 61.9---
2024-07-21 05:00 am- 7.8 9.7 0.3--NNW30.08- 72.1 78.3 61.5---
2024-07-21 04:50 am- 7.8 9.7 0.3--NNW30.08- 72.3 78.4 61.9---
2024-07-21 04:40 am- 5.8 7.8 0.3--NNW30.08- 72.1 78.4 62.2---
2024-07-21 04:30 am- 5.8 7.8 0.3--NNW30.07- 72.3 78.4 62.6---
2024-07-21 04:20 am- 5.8 5.8 0.3-- NW30.07- 73.0 78.4 62.4---
2024-07-21 04:10 am- 5.8 5.8 0.3-- NW30.07- 73.2 78.4 62.8---
2024-07-21 04:00 am- 5.8 5.8 0.3-- NW30.07-0.01 73.0 78.4 62.2---
2024-07-21 03:50 am- 5.8 5.8 0.3--WNW30.07- 72.9 78.4 62.1---
2024-07-21 03:40 am- 5.8 7.8 0.3--WNW30.07- 72.9 78.4 62.1---
2024-07-21 03:30 am- 5.8 7.8 0.3-- W30.08- 72.9 78.6 61.9---
2024-07-21 03:20 am- 5.8 7.8 0.3-- W30.08- 73.0 78.6 62.2---
2024-07-21 03:10 am- 5.8 7.8 0.3-- W30.08- 73.0 78.6 62.1---
2024-07-21 03:00 am- 5.8 7.8 0.3--WSW30.08- 73.0 78.6 61.7---
2024-07-21 02:50 am- 5.8 7.8 0.3--WNW30.08- 73.4 78.6 61.7---
2024-07-21 02:40 am- 5.8 5.8 0.3-- NW30.08- 73.9 78.6 62.2---
2024-07-21 02:30 am- 3.9 5.8 0.3-- NW30.08- 73.9 78.6 62.1---
2024-07-21 02:20 am- 3.9 5.8 0.3-- NW30.08- 73.8 78.6 63.1---
2024-07-21 02:10 am- 3.9 5.8 0.3-- NW30.08- 73.4 78.6 63.5---
2024-07-21 01:50 am- 3.9 5.8 0.0--NNE30.08- 73.6 78.6 64.2---
2024-07-21 01:40 am- 3.9 5.8 0.3--NNE30.08- 73.9 78.6 63.9---
2024-07-21 01:30 am- 3.9 5.8 0.0--NNE30.08- 74.3 78.6 62.2---
2024-07-21 01:20 am- 3.9 5.8 0.0-- NE30.08- 74.3 78.6 63.3---
2024-07-21 01:10 am- 1.9 3.9 0.0--NNE30.08- 74.5 78.6 63.7---
2024-07-21 01:00 am- 1.9 3.9 0.3-- E30.08+0.00 74.7 78.8 63.3---
2024-07-21 12:50 am- 1.9 1.9 0.3-- E30.08- 74.7 78.8 63.1---
2024-07-21 12:40 am- 1.9 1.9 0.0--NNW30.08- 74.8 78.8 63.5---
2024-07-21 12:30 am- 1.9 3.9 0.3--ENE30.08- 75.2 78.8 63.1---
2024-07-21 12:20 am- 3.9 3.9 0.3--ENE30.08- 75.6 78.8 63.0---
2024-07-21 12:10 am- 3.9 3.9 0.3-- E30.08- 75.6 78.8 62.4---
2024-07-20 11:50 pm- 3.9 3.9 0.3--NNE30.08- 75.7 79.0 62.4---
2024-07-20 11:40 pm- 3.9 3.9 0.3--ENE30.08- 75.7 79.0 62.8---
2024-07-20 11:30 pm- 3.9 3.9 0.3--NNE30.08- 75.9 79.0 63.3---
2024-07-20 11:20 pm- 3.9 5.8 0.3-- N30.08- 76.1 79.2 63.1---
2024-07-20 11:10 pm- 3.9 5.8 0.3-- NE30.08- 76.1 79.2 62.8---
2024-07-20 10:50 pm- 1.9 5.8 0.3--NNE30.08- 77.2 79.2 61.7---
2024-07-20 10:40 pm- 1.9 1.9 0.3-- E30.08- 77.4 79.2 60.8---
2024-07-20 10:30 pm- 1.9 1.9 0.3-- N30.08- 77.5 79.2 59.5---
2024-07-20 10:20 pm- 1.9 1.9 0.3-- N30.08- 77.5 79.2 59.9---
2024-07-20 10:10 pm- 1.9 3.9 0.7--NNE30.08- 77.5 79.3 59.5---
2024-07-20 10:00 pm- 1.9 3.9 0.3-- N30.08- 77.5 79.3 60.1---
2024-07-20 09:50 pm- 1.9 3.9 0.7-- N30.08- 77.7 79.5 60.3---
2024-07-20 09:40 pm- 1.9 1.9 0.7--NNE30.07- 77.7 79.5 58.6---
2024-07-20 09:30 pm- 0.0 1.9 0.3-- NW30.07- 77.7 79.5 57.7---
2024-07-20 09:20 pm- 1.9 1.9 0.3-- NE30.07- 77.7 79.5 57.9---
2024-07-20 09:10 pm- 1.9 3.9 0.7--ENE30.07- 77.9 79.9 58.3---
2024-07-20 09:00 pm- 1.9 3.9 0.3--NNE30.07+0.00 77.7 80.1 58.6---
2024-07-20 08:50 pm- 1.9 3.9 0.3-- N30.07- 77.9 80.1 58.5---
2024-07-20 08:40 pm- 1.9 3.9 0.7-- NE30.07- 78.3 79.9 58.6---
2024-07-20 08:30 pm- 1.9 3.9 0.7-- E30.07- 78.3 79.9 58.5---
2024-07-20 08:20 pm- 1.9 3.9 0.3--ESE30.07- 78.3 80.1 58.5---
2024-07-20 08:10 pm- 1.9 3.9 0.3--NNW30.07- 78.6 80.1 58.5---
2024-07-20 08:00 pm- 1.9 3.9 0.3-- NE30.06-0.02 78.6 80.1 58.3---
2024-07-20 07:50 pm- 1.9 3.9 0.7--NNW30.06- 78.6 80.2 58.1---
2024-07-20 07:40 pm- 1.9 3.9 0.7--ENE30.07- 78.8 80.2 57.6---
2024-07-20 07:30 pm- 1.9 1.9 0.3--NNE30.07- 78.4 80.2 57.7---
2024-07-20 07:20 pm- 1.9 3.9 0.7--NNW30.06- 78.4 80.2 57.9---
2024-07-20 07:10 pm- 1.9 3.9 0.7-- NE30.06- 78.4 80.2 57.6---
2024-07-20 06:50 pm- 1.9 3.9 0.7-- E30.07- 78.6 80.4 57.7---
2024-07-20 06:40 pm- 1.9 3.9 0.7-- NE30.07- 78.6 80.4 57.4---
2024-07-20 06:30 pm- 1.9 3.9 0.3-- NE30.07- 78.6 80.4 57.2---
2024-07-20 06:20 pm- 1.9 3.9 0.7-- NE30.07- 78.3 80.4 56.7---
2024-07-20 06:10 pm- 3.9 5.8 0.7--ENE30.07- 78.1 80.4 57.6---
2024-07-20 06:00 pm- 1.9 3.9 0.7-- S30.07- 77.9 80.2 58.3---
2024-07-20 05:50 pm- 1.9 3.9 0.7--ENE30.07- 77.9 80.6 57.7---
2024-07-20 05:40 pm- 1.9 3.9 0.7-- E30.07- 77.9 80.4 57.9---
2024-07-20 05:30 pm- 1.9 3.9 0.7-- E30.07- 77.9 80.6 57.7---
2024-07-20 05:20 pm- 1.9 5.8 0.7-- N30.08- 77.5 80.4 57.4---
2024-07-20 05:10 pm- 1.9 5.8 0.7--SSE30.08- 77.4 80.6 57.4---
2024-07-20 05:00 pm- 1.9 3.9 0.7-- E30.08-0.03 77.2 80.4 57.6---
2024-07-20 04:50 pm- 3.9 3.9 0.7-- NE30.09- 77.0 80.2 57.7---
2024-07-20 04:40 pm- 1.9 3.9 0.7--NNE30.09- 77.2 80.2 56.7---
2024-07-20 04:30 pm- 1.9 3.9 0.7-- NE30.09- 77.2 80.1 56.8---
2024-07-20 04:20 pm- 1.9 5.8 0.7-- NE30.09- 76.6 80.2 56.8---
2024-07-20 04:10 pm- 3.9 5.8 0.7-- NE30.09- 76.6 80.1 57.6---
2024-07-20 04:00 pm- 3.9 5.8 0.7--ENE30.10-0.02 76.5 80.2 57.7---
2024-07-20 03:50 pm- 3.9 5.8 0.7-- W30.10- 76.3 80.2 57.7---
2024-07-20 03:40 pm- 3.9 5.8 0.7-- E30.10- 76.3 80.1 57.7---
2024-07-20 03:30 pm- 3.9 5.8 0.7-- NW30.10- 76.1 79.9 57.7---
2024-07-20 03:20 pm- 3.9 5.8 1.0-- NE30.10- 75.9 79.7 57.9---
2024-07-20 03:10 pm- 3.9 5.8 0.7--NNE30.10- 75.9 79.7 58.5---
2024-07-20 02:50 pm- 3.9 5.8 0.7--ENE30.11- 75.7 79.9 58.5---
2024-07-20 02:40 pm- 3.9 5.8 1.0-- NE30.11- 75.6 79.7 58.6---
2024-07-20 02:30 pm- 3.9 5.8 0.7-- NE30.11- 75.4 79.9 58.8---
2024-07-20 02:20 pm- 3.9 7.8 0.7-- NE30.11- 75.4 80.1 59.2---
2024-07-20 02:10 pm- 3.9 5.8 1.0--ENE30.11- 75.2 79.9 59.7---
2024-07-20 02:00 pm- 3.9 5.8 0.7-- E30.11-0.01 74.8 79.5 60.3---
2024-07-20 01:50 pm- 3.9 5.8 0.7--ESE30.11- 74.8 79.7 60.6---
2024-07-20 01:40 pm- 3.9 5.8 0.7--NNW30.11- 74.7 79.5 61.0---
2024-07-20 01:30 pm- 3.9 5.8 0.7--NNE30.12- 74.5 79.5 60.8---
2024-07-20 01:20 pm- 3.9 5.8 0.7--ENE30.12- 74.3 78.6 60.4---
2024-07-20 01:10 pm- 3.9 5.8 0.7--ENE30.12- 74.3 79.5 60.3---
2024-07-20 01:00 pm- 3.9 5.8 0.7--ESE30.12+0.00 74.1 79.3 60.4---
2024-07-20 12:50 pm- 3.9 5.8 0.7-- E30.12- 74.1 79.3 60.6---
2024-07-20 12:40 pm- 3.9 3.9 0.7--NNE30.12- 73.9 79.0 61.0---
2024-07-20 12:30 pm- 3.9 5.8 0.7-- NE30.12- 73.9 79.2 60.8---
2024-07-20 12:20 pm- 3.9 5.8 0.7--ESE30.12- 73.9 79.0 59.2---
2024-07-20 12:10 pm- 3.9 5.8 0.7--WSW30.13- 73.9 78.8 58.5---
2024-07-20 12:00 pm- 3.9 5.8 0.7--SSE30.13+0.00 73.8 78.8 57.6---
2024-07-20 11:50 am- 3.9 7.8 0.7--ESE30.13- 73.6 78.6 57.7---
2024-07-20 11:30 am- 3.9 5.8 0.7--SSE30.13- 73.8 78.6 54.9---
2024-07-20 11:10 am- 3.9 5.8 0.3-- N30.12- 73.6 78.6 55.2---
2024-07-20 11:00 am- 3.9 5.8 0.7-- E30.12+0.00 73.4 78.6 56.5---
2024-07-20 10:50 am- 3.9 5.8 0.7-- S30.12- 73.0 78.4 56.5---
2024-07-20 10:40 am- 3.9 5.8 0.7-- S30.12- 72.9 78.4 56.3---
2024-07-20 10:30 am- 3.9 3.9 0.7--SSE30.12- 72.9 78.3 55.0---
2024-07-20 10:20 am- 3.9 5.8 0.3--ESE30.12- 72.7 78.3 54.5---
2024-07-20 10:10 am- 3.9 5.8 0.3-- N30.12- 72.3 78.1 55.4---
2024-07-20 10:00 am- 1.9 3.9 0.7-- SE30.12+0.01 72.0 78.1 56.3---
2024-07-20 09:50 am- 1.9 3.9 0.3-- E30.12- 71.6 78.3 55.4---
2024-07-20 09:40 am- 1.9 3.9 0.7--ENE30.12- 71.4 78.1 55.9---
2024-07-20 09:30 am- 1.9 3.9 0.3--NNE30.12- 71.2 78.1 56.5---
2024-07-20 09:20 am- 1.9 3.9 0.3-- NW30.13- 70.7 78.1 56.3---
2024-07-20 09:10 am- 1.9 3.9 0.3-- N30.13- 70.3 77.9 54.9---
2024-07-20 09:00 am- 1.9 3.9 0.3-- S30.13+0.02 69.8 77.9 55.2---
2024-07-20 08:50 am- 1.9 3.9 0.3--SSE30.12- 69.6 77.9 55.8---
2024-07-20 08:40 am- 1.9 3.9 0.3-- N30.12- 69.4 77.9 55.9---
2024-07-20 08:30 am- 3.9 3.9 0.3-- NE30.12- 69.3 77.9 56.3---
2024-07-20 08:20 am- 3.9 3.9 0.7--SSE30.12- 69.1 77.9 56.3---
2024-07-20 08:10 am- 3.9 5.8 0.3--NNW30.12- 69.1 77.9 56.7---
2024-07-20 08:00 am- 3.9 5.8 0.3--ESE30.12+0.01 68.7 78.1 56.8---
2024-07-20 07:50 am- 3.9 3.9 0.7-- S30.12- 68.5 78.1 56.8---
2024-07-20 07:40 am- 3.9 5.8 0.3-- S30.12- 68.2 78.1 56.8---
2024-07-20 07:30 am- 3.9 5.8 0.7--SSW30.11- 67.8 78.1 57.2---
2024-07-20 07:20 am- 3.9 7.8 0.3-- S30.11- 67.3 77.9 57.9---
2024-07-20 07:10 am- 5.8 7.8 0.3-- S30.11- 67.5 78.1 58.6---
2024-07-20 07:00 am- 5.8 7.8 0.3-- SE30.11+0.01 68.2 78.1 59.2---
2024-07-20 06:50 am- 3.9 5.8 0.3--SSE30.11- 68.0 78.1 58.8---
2024-07-20 06:40 am- 3.9 5.8 0.3-- S30.11- 67.5 78.1 59.2---
2024-07-20 06:30 am- 3.9 5.8 0.3-- NW30.11- 67.1 78.1 59.0---
2024-07-20 06:20 am- 3.9 5.8 0.0--NNE30.11- 66.9 78.1 59.2---
2024-07-20 06:10 am- 5.8 5.8 0.0-- SE30.11- 67.3 78.1 59.2---
2024-07-20 06:00 am- 3.9 7.8 0.0-- SE30.11+0.00 68.0 78.1 59.7---
2024-07-20 05:50 am- 3.9 5.8 0.3-- SE30.11- 68.7 78.1 60.1---

Detailed Wave Summary
for 45202 as of (5:50 am EDT)
0950 GMT on 07/21/2024:

These wave data are displayed in rounded times.

     

Click on the graph icon in the table below to see a time series plot of the last five days of that observation.

5-day plot - Significant Wave Height Significant Wave Height (WVHT): 0.3 ft
Previous observations
TIME
(EDT)
5-day plot - Wave Height
WVHT
ft
5-day plot - Swell Height
SwH
ft
5-day plot - Swell Period
SwP
sec
5-day plot - Swell Direction
SwD
 
5-day plot - Wind Wave Height
WWH
ft
5-day plot - Wind Wave Period
WWP
sec
5-day plot - Wind Wave Direction
WWD
 
5-day plot - Wave Steepness
STEEPNESS
 
5-day plot - Average Wave Period
APD
sec
2024-07-21 05:40 am 0.3------ N/A-
2024-07-21 05:30 am 0.3------ N/A-
2024-07-21 05:20 am 0.3------ N/A-
2024-07-21 05:10 am 0.3------ N/A-
2024-07-21 05:00 am 0.3------ N/A-
2024-07-21 04:50 am 0.3------ N/A-
2024-07-21 04:40 am 0.3------ N/A-
2024-07-21 04:30 am 0.3------ N/A-
2024-07-21 04:20 am 0.3------ N/A-
2024-07-21 04:10 am 0.3------ N/A-
2024-07-21 04:00 am 0.3------ N/A-
2024-07-21 03:50 am 0.3------ N/A-
2024-07-21 03:40 am 0.3------ N/A-
2024-07-21 03:30 am 0.3------ N/A-
2024-07-21 03:20 am 0.3------ N/A-
2024-07-21 03:10 am 0.3------ N/A-
2024-07-21 03:00 am 0.3------ N/A-
2024-07-21 02:50 am 0.3------ N/A-
2024-07-21 02:40 am 0.3------ N/A-
2024-07-21 02:30 am 0.3------ N/A-
2024-07-21 02:20 am 0.3------ N/A-
2024-07-21 02:10 am 0.3------ N/A-
2024-07-21 01:50 am 0.0------ N/A-
2024-07-21 01:40 am 0.3------ N/A-
2024-07-21 01:30 am 0.0------ N/A-
2024-07-21 01:20 am 0.0------ N/A-
2024-07-21 01:10 am 0.0------ N/A-
2024-07-21 01:00 am 0.3------ N/A-
2024-07-21 12:50 am 0.3------ N/A-
2024-07-21 12:40 am 0.0------ N/A-
2024-07-21 12:30 am 0.3------ N/A-
2024-07-21 12:20 am 0.3------ N/A-
2024-07-21 12:10 am 0.3------ N/A-
2024-07-20 11:50 pm 0.3------ N/A-
2024-07-20 11:40 pm 0.3------ N/A-
2024-07-20 11:30 pm 0.3------ N/A-
2024-07-20 11:20 pm 0.3------ N/A-
2024-07-20 11:10 pm 0.3------ N/A-
2024-07-20 10:50 pm 0.3------ N/A-
2024-07-20 10:40 pm 0.3------ N/A-
2024-07-20 10:30 pm 0.3------ N/A-
2024-07-20 10:20 pm 0.3------ N/A-
2024-07-20 10:10 pm 0.7------ N/A-
2024-07-20 10:00 pm 0.3------ N/A-
2024-07-20 09:50 pm 0.7------ N/A-
2024-07-20 09:40 pm 0.7------ N/A-
2024-07-20 09:30 pm 0.3------ N/A-
2024-07-20 09:20 pm 0.3------ N/A-
2024-07-20 09:10 pm 0.7------ N/A-
2024-07-20 09:00 pm 0.3------ N/A-
2024-07-20 08:50 pm 0.3------ N/A-
2024-07-20 08:40 pm 0.7------ N/A-
2024-07-20 08:30 pm 0.7------ N/A-
2024-07-20 08:20 pm 0.3------ N/A-
2024-07-20 08:10 pm 0.3------ N/A-
2024-07-20 08:00 pm 0.3------ N/A-
2024-07-20 07:50 pm 0.7------ N/A-
2024-07-20 07:40 pm 0.7------ N/A-
2024-07-20 07:30 pm 0.3------ N/A-
2024-07-20 07:20 pm 0.7------ N/A-
2024-07-20 07:10 pm 0.7------ N/A-
2024-07-20 06:50 pm 0.7------ N/A-
2024-07-20 06:40 pm 0.7------ N/A-
2024-07-20 06:30 pm 0.3------ N/A-
2024-07-20 06:20 pm 0.7------ N/A-
2024-07-20 06:10 pm 0.7------ N/A-
2024-07-20 06:00 pm 0.7------ N/A-
2024-07-20 05:50 pm 0.7------ N/A-
2024-07-20 05:40 pm 0.7------ N/A-
2024-07-20 05:30 pm 0.7------ N/A-
2024-07-20 05:20 pm 0.7------ N/A-
2024-07-20 05:10 pm 0.7------ N/A-
2024-07-20 05:00 pm 0.7------ N/A-
2024-07-20 04:50 pm 0.7------ N/A-
2024-07-20 04:40 pm 0.7------ N/A-
2024-07-20 04:30 pm 0.7------ N/A-
2024-07-20 04:20 pm 0.7------ N/A-
2024-07-20 04:10 pm 0.7------ N/A-
2024-07-20 04:00 pm 0.7------ N/A-
2024-07-20 03:50 pm 0.7------ N/A-
2024-07-20 03:40 pm 0.7------ N/A-
2024-07-20 03:30 pm 0.7------ N/A-
2024-07-20 03:20 pm 1.0------ N/A-
2024-07-20 03:10 pm 0.7------ N/A-
2024-07-20 02:50 pm 0.7------ N/A-
2024-07-20 02:40 pm 1.0------ N/A-
2024-07-20 02:30 pm 0.7------ N/A-
2024-07-20 02:20 pm 0.7------ N/A-
2024-07-20 02:10 pm 1.0------ N/A-
2024-07-20 02:00 pm 0.7------ N/A-
2024-07-20 01:50 pm 0.7------ N/A-
2024-07-20 01:40 pm 0.7------ N/A-
2024-07-20 01:30 pm 0.7------ N/A-
2024-07-20 01:20 pm 0.7------ N/A-
2024-07-20 01:10 pm 0.7------ N/A-
2024-07-20 01:00 pm 0.7------ N/A-
2024-07-20 12:50 pm 0.7------ N/A-
2024-07-20 12:40 pm 0.7------ N/A-
2024-07-20 12:30 pm 0.7------ N/A-
2024-07-20 12:20 pm 0.7------ N/A-
2024-07-20 12:10 pm 0.7------ N/A-
2024-07-20 12:00 pm 0.7------ N/A-
2024-07-20 11:50 am 0.7------ N/A-
2024-07-20 11:30 am 0.7------ N/A-
2024-07-20 11:10 am 0.3------ N/A-
2024-07-20 11:00 am 0.7------ N/A-
2024-07-20 10:50 am 0.7------ N/A-
2024-07-20 10:40 am 0.7------ N/A-
2024-07-20 10:30 am 0.7------ N/A-
2024-07-20 10:20 am 0.3------ N/A-
2024-07-20 10:10 am 0.3------ N/A-
2024-07-20 10:00 am 0.7------ N/A-
2024-07-20 09:50 am 0.3------ N/A-
2024-07-20 09:40 am 0.7------ N/A-
2024-07-20 09:30 am 0.3------ N/A-
2024-07-20 09:20 am 0.3------ N/A-
2024-07-20 09:10 am 0.3------ N/A-
2024-07-20 09:00 am 0.3------ N/A-
2024-07-20 08:50 am 0.3------ N/A-
2024-07-20 08:40 am 0.3------ N/A-
2024-07-20 08:30 am 0.3------ N/A-
2024-07-20 08:20 am 0.7------ N/A-
2024-07-20 08:10 am 0.3------ N/A-
2024-07-20 08:00 am 0.3------ N/A-
2024-07-20 07:50 am 0.7------ N/A-
2024-07-20 07:40 am 0.3------ N/A-
2024-07-20 07:30 am 0.7------ N/A-
2024-07-20 07:20 am 0.3------ N/A-
2024-07-20 07:10 am 0.3------ N/A-
2024-07-20 07:00 am 0.3------ N/A-
2024-07-20 06:50 am 0.3------ N/A-
2024-07-20 06:40 am 0.3------ N/A-
2024-07-20 06:30 am 0.3------ N/A-
2024-07-20 06:20 am 0.0------ N/A-
2024-07-20 06:10 am 0.0------ N/A-
2024-07-20 06:00 am 0.0------ N/A-
2024-07-20 05:50 am 0.3------ N/A-

Solar Radiation Conditions at 45202 as of
(5:50 am EDT)
0950 GMT on 07/21/2024:
     

Click on the graph icon in the table below to see a time series plot of the last five days of that observation.

5-day plot - Short Wave Radiation 1 Short Wave Radiation 1 (SRAD1): 0.1watts/meter2
Previous observations
TIME
(EDT)
5-day plot - Short Wave Radiation 1
SRAD1
w/m2
5-day plot - Short Wave Radiation 2
SRAD2
w/m2
5-day plot - Long Wave Radiation
LRAD
w/m2
2024-07-21 05:40 am 0.0--
2024-07-21 05:30 am 0.0--
2024-07-21 05:20 am 0.0--
2024-07-21 05:10 am 0.0--
2024-07-21 05:00 am 0.0--
2024-07-21 04:50 am 0.0--
2024-07-21 04:40 am 0.0--
2024-07-21 04:30 am 0.0--
2024-07-21 04:20 am 0.0--
2024-07-21 04:10 am 0.0--
2024-07-21 04:00 am 0.0--
2024-07-21 03:50 am 0.0--
2024-07-21 03:40 am 0.0--
2024-07-21 03:30 am 0.0--
2024-07-21 03:20 am 0.0--
2024-07-21 03:10 am 0.0--
2024-07-21 03:00 am 0.0--
2024-07-21 02:50 am 0.0--
2024-07-21 02:40 am 0.0--
2024-07-21 02:30 am 0.0--
2024-07-21 02:20 am 0.0--
2024-07-21 02:10 am 0.0--
2024-07-21 01:50 am 0.0--
2024-07-21 01:40 am 0.0--
2024-07-21 01:30 am 0.0--
2024-07-21 01:20 am 0.0--
2024-07-21 01:10 am 0.0--
2024-07-21 01:00 am 0.0--
2024-07-21 12:50 am 0.0--
2024-07-21 12:40 am 0.0--
2024-07-21 12:30 am 0.0--
2024-07-21 12:20 am 0.0--
2024-07-21 12:10 am 0.0--
2024-07-20 11:50 pm 0.0--
2024-07-20 11:40 pm 0.0--
2024-07-20 11:30 pm 0.0--
2024-07-20 11:20 pm 0.0--
2024-07-20 11:10 pm 0.0--
2024-07-20 10:50 pm 0.0--
2024-07-20 10:40 pm 0.0--
2024-07-20 10:30 pm 0.0--
2024-07-20 10:20 pm 0.0--
2024-07-20 10:10 pm 0.0--
2024-07-20 10:00 pm 0.0--
2024-07-20 09:50 pm 0.0--
2024-07-20 09:40 pm 0.0--
2024-07-20 09:30 pm 0.1--
2024-07-20 09:20 pm 0.8--
2024-07-20 09:10 pm 2.1--
2024-07-20 09:00 pm 5.9--
2024-07-20 08:50 pm 15.1--
2024-07-20 08:40 pm 38.0--
2024-07-20 08:30 pm 58.7--
2024-07-20 08:20 pm 57.8--
2024-07-20 08:10 pm 78.6--
2024-07-20 08:00 pm 149.8--
2024-07-20 07:50 pm 170.3--
2024-07-20 07:40 pm 168.0--
2024-07-20 07:30 pm 151.5--
2024-07-20 07:20 pm 232.4--
2024-07-20 07:10 pm 301.9--
2024-07-20 06:50 pm 369.7--
2024-07-20 06:40 pm 275.1--
2024-07-20 06:30 pm 422.4--
2024-07-20 06:20 pm 462.1--
2024-07-20 06:10 pm 318.3--
2024-07-20 06:00 pm 304.3--
2024-07-20 05:50 pm 350.4--
2024-07-20 05:40 pm 383.5--
2024-07-20 05:30 pm 565.8--
2024-07-20 05:20 pm 652.8--
2024-07-20 05:10 pm 665.9--
2024-07-20 05:00 pm 576.8--
2024-07-20 04:50 pm 475.9--
2024-07-20 04:40 pm 377.3--
2024-07-20 04:30 pm 670.4--
2024-07-20 04:20 pm 735.1--
2024-07-20 04:10 pm 820.0--
2024-07-20 04:00 pm 830.0--
2024-07-20 03:50 pm 850.0--
2024-07-20 03:40 pm 868.0--
2024-07-20 03:30 pm 878.0--
2024-07-20 03:20 pm 891.0--
2024-07-20 03:10 pm 903.0--
2024-07-20 02:50 pm 934.0--
2024-07-20 02:40 pm 935.0--
2024-07-20 02:30 pm 937.0--
2024-07-20 02:20 pm 947.0--
2024-07-20 02:10 pm 951.0--
2024-07-20 02:00 pm 953.0--
2024-07-20 01:50 pm 956.0--
2024-07-20 01:40 pm 955.0--
2024-07-20 01:30 pm 952.0--
2024-07-20 01:20 pm 952.0--
2024-07-20 01:10 pm 949.0--
2024-07-20 01:00 pm 943.0--
2024-07-20 12:50 pm 934.0--
2024-07-20 12:40 pm 922.0--
2024-07-20 12:30 pm 909.0--
2024-07-20 12:20 pm 902.0--
2024-07-20 12:10 pm 892.0--
2024-07-20 12:00 pm 878.0--
2024-07-20 11:50 am 860.0--
2024-07-20 11:30 am 831.0--
2024-07-20 11:10 am 787.2--
2024-07-20 11:00 am 764.7--
2024-07-20 10:50 am 740.1--
2024-07-20 10:40 am 715.1--
2024-07-20 10:30 am 689.4--
2024-07-20 10:20 am 669.2--
2024-07-20 10:10 am 642.1--
2024-07-20 10:00 am 609.9--
2024-07-20 09:50 am 586.0--
2024-07-20 09:40 am 558.3--
2024-07-20 09:30 am 524.2--
2024-07-20 09:20 am 495.4--
2024-07-20 09:10 am 466.0--
2024-07-20 09:00 am 434.6--
2024-07-20 08:50 am 404.6--
2024-07-20 08:40 am 370.8--
2024-07-20 08:30 am 343.0--
2024-07-20 08:20 am 309.2--
2024-07-20 08:10 am 281.8--
2024-07-20 08:00 am 253.0--
2024-07-20 07:50 am 224.3--
2024-07-20 07:40 am 195.8--
2024-07-20 07:30 am 169.3--
2024-07-20 07:20 am 137.5--
2024-07-20 07:10 am 110.4--
2024-07-20 07:00 am 82.6--
2024-07-20 06:50 am 53.9--
2024-07-20 06:40 am 33.9--
2024-07-20 06:30 am 14.6--
2024-07-20 06:20 am 3.8--
2024-07-20 06:10 am 1.3--
2024-07-20 06:00 am 0.4--
2024-07-20 05:50 am 0.1--